Date String (YYYY-MM-DD hh:mm:ss) UTC,Instrument flags,absolute air pressure of the measurement (hPa),sample flow rate (lpm),inlet stack bypass flow (lpm),air temperature of the measurement (°C),ambient temperature measured by the external sensor (°C),aerosol sample conditioner tube jacket temperature (°C),OPC LED temperature (°C),internal box temperature (°C),relative humidity of the measurement (%),span deviation,mass concentration of particles derived from Lorenz-Mie calculation of OPC scattering (μg/m³),mass concentration of particles derived from Lorenz-Mie calculation of OPC scattering (μg/m³),mass concentration of particles derived from Lorenz-Mie calculation of OPC scattering (μg/m³)
DateTimeUTC,F1_M11,P_M11,Q1_M11,Q2_M11,T1_M11,T2_M11,T3_M11,T4_M11,T5_M11,U1_M11,ZSPAN_M11,X2_M11,X0_M11,X1_M11
2024-04-28 18:00:00,SystemResetWarning,0824.4,4.99,000.00,021.6,021.0,000.0,030.1,023.4,027.6,0000.0,0003.49,0006.91,0003.35
2024-04-28 18:01:00,SystemResetWarning,0824.4,5.00,000.00,021.7,021.0,000.0,030.1,023.4,028.5,0000.0,0003.47,0005.69,0003.32
2024-04-28 18:02:00,SystemResetWarning,0824.4,5.00,000.00,021.7,021.0,000.0,030.1,023.4,027.7,0000.0,0003.44,0005.61,0003.30
2024-04-28 18:03:00,SystemResetWarning,0824.3,5.01,000.00,021.7,021.0,000.0,030.1,023.5,025.7,0000.0,0003.41,0004.91,0003.28
2024-04-28 18:04:00,SystemResetWarning,0824.4,5.00,000.00,021.7,021.0,000.0,030.1,023.5,025.2,0000.0,0003.42,0004.50,0003.26
2024-04-28 18:05:00,SystemResetWarning,0824.4,5.00,000.00,021.7,021.0,000.0,030.1,023.5,027.0,0000.0,0003.38,0004.43,0003.22
2024-04-28 18:06:00,SystemResetWarning,0824.4,5.00,000.00,021.7,021.0,000.0,030.1,023.5,026.4,0000.0,0003.34,0004.36,0003.19
2024-04-28 18:07:00,SystemResetWarning,0824.3,5.00,000.00,021.7,021.0,000.0,030.1,023.5,025.9,0000.0,0003.31,0004.31,0003.17
2024-04-28 18:08:00,SystemResetWarning,0824.3,5.00,000.00,021.7,021.1,000.0,030.1,023.5,027.1,0000.0,0003.29,0004.30,0003.13
2024-04-28 18:09:00,SystemResetWarning,0824.3,5.00,000.00,021.7,021.1,000.0,030.1,023.5,027.2,0000.0,0003.26,0004.16,0003.10
2024-04-28 18:10:00,SystemResetWarning,0824.2,5.00,000.00,021.7,021.1,000.0,030.1,023.5,026.9,0000.0,0003.21,0003.82,0003.05
2024-04-28 18:11:00,SystemResetWarning,0824.3,5.00,000.00,021.7,021.1,000.0,030.2,023.5,028.3,0000.0,0003.18,0003.71,0003.00
2024-04-28 18:12:00,SystemResetWarning,0824.3,5.00,000.00,021.8,021.1,000.0,030.2,023.5,025.9,0000.0,0003.16,0004.15,0002.96
2024-04-28 18:13:00,SystemResetWarning,0824.2,5.00,000.00,021.8,021.1,000.0,030.2,023.6,025.8,0000.0,0003.16,0004.33,0002.93
2024-04-28 18:14:00,SystemResetWarning,0824.2,5.00,000.00,021.8,021.1,000.0,030.2,023.6,026.9,0000.0,0003.16,0004.39,0002.91
2024-04-28 18:15:00,SystemResetWarning,0824.1,5.00,000.00,021.8,021.1,000.0,030.2,023.6,027.6,0000.0,0003.13,0004.39,0002.88
2024-04-28 18:16:00,SystemResetWarning,0824.2,4.99,000.00,021.8,021.1,000.0,030.2,023.6,026.7,0000.0,0003.11,0004.39,0002.86
2024-04-28 18:17:00,SystemResetWarning,0824.2,5.00,000.00,021.8,021.1,000.0,030.2,023.6,024.9,0000.0,0003.12,0004.47,0002.85
2024-04-28 18:18:00,SystemResetWarning,0824.2,4.99,000.00,021.8,021.1,000.0,030.2,023.6,025.8,0000.0,0003.13,0004.57,0002.83
2024-04-28 18:19:00,SystemResetWarning,0824.2,5.00,000.00,021.8,021.1,000.0,030.2,023.6,026.2,0000.0,0003.14,0004.97,0002.79
2024-04-28 18:20:00,SystemResetWarning,0824.2,5.00,000.00,021.8,021.2,000.0,030.2,023.6,025.6,0000.0,0003.13,0005.23,0002.78
2024-04-28 18:21:00,SystemResetWarning,0824.1,5.00,000.00,021.8,021.2,000.0,030.2,023.6,026.8,0000.0,0003.12,0005.24,0002.76
2024-04-28 18:22:00,SystemResetWarning,0824.2,5.00,000.00,021.8,021.2,000.0,030.2,023.6,026.7,0000.0,0003.11,0005.27,0002.73
2024-04-28 18:23:00,SystemResetWarning,0824.1,5.00,000.00,021.8,021.2,000.0,030.2,023.6,025.8,0000.0,0003.10,0005.13,0002.71
2024-04-28 18:24:00,SystemResetWarning,0824.2,5.00,000.00,021.8,021.2,000.0,030.2,023.6,025.8,0000.0,0003.08,0004.57,0002.70
2024-04-28 18:25:00,SystemResetWarning,0824.2,5.00,000.00,021.8,021.2,000.0,030.3,023.7,026.8,0000.0,0003.03,0004.50,0002.67
2024-04-28 18:26:00,SystemResetWarning,0824.2,5.00,000.00,021.9,021.2,000.0,030.3,023.7,025.9,0000.0,0002.97,0004.46,0002.63
2024-04-28 18:27:00,SystemResetWarning,0824.2,5.00,000.00,021.9,021.2,000.0,030.3,023.7,026.5,0000.0,0002.96,0004.36,0002.65
2024-04-28 18:28:00,SystemResetWarning,0824.1,5.00,000.00,021.9,021.2,000.0,030.3,023.7,026.6,0000.0,0002.95,0004.30,0002.65
2024-04-28 18:29:00,SystemResetWarning,0824.2,5.00,000.00,021.9,021.3,000.0,030.3,023.7,027.5,0000.0,0002.93,0004.33,0002.66
2024-04-28 18:30:00,SystemResetWarning,0824.1,5.00,000.00,021.9,021.3,000.0,030.3,023.7,026.9,0000.0,0002.93,0003.98,0002.65
2024-04-28 18:31:00,SystemResetWarning,0824.2,5.00,000.00,021.9,021.3,000.0,030.3,023.7,025.6,0000.0,0002.88,0003.69,0002.61
2024-04-28 18:32:00,SystemResetWarning,0824.2,5.01,000.00,021.9,021.3,000.0,030.3,023.7,026.5,0000.0,0002.85,0003.64,0002.59
2024-04-28 18:33:00,SystemResetWarning,0824.2,5.00,000.00,021.9,021.3,000.0,030.3,023.7,027.5,0000.0,0002.83,0003.64,0002.57
2024-04-28 18:34:00,SystemResetWarning,0824.1,4.99,000.00,021.9,021.3,000.0,030.3,023.7,026.4,0000.0,0002.81,0003.59,0002.56
2024-04-28 18:35:00,SystemResetWarning,0824.0,5.00,000.00,021.9,021.3,000.0,030.3,023.8,027.1,0000.0,0002.80,0004.21,0002.55
2024-04-28 18:36:00,SystemResetWarning,0824.0,5.00,000.00,022.0,021.3,000.0,030.3,023.8,025.8,0000.0,0002.86,0004.31,0002.57
2024-04-28 18:37:00,SystemResetWarning,0824.0,5.00,000.00,022.0,021.3,000.0,030.4,023.7,025.8,0000.0,0002.91,0004.25,0002.61
2024-04-28 18:38:00,SystemResetWarning,0824.0,5.00,000.00,022.0,021.3,000.0,030.4,023.8,025.8,0000.0,0002.95,0004.30,0002.63
2024-04-28 18:39:00,SystemResetWarning,0824.0,5.00,000.00,022.0,021.3,000.0,030.4,023.8,025.7,0000.0,0003.01,0004.43,0002.66
2024-04-28 18:40:00,SystemResetWarning,0824.1,5.00,000.00,022.0,021.3,000.0,030.4,023.8,026.7,0000.0,0003.02,0004.40,0002.67
2024-04-28 18:41:00,SystemResetWarning,0824.0,5.00,000.00,022.0,021.3,000.0,030.4,023.8,027.4,0000.0,0003.01,0004.38,0002.69
2024-04-28 18:42:00,SystemResetWarning,0824.0,4.99,000.00,022.0,021.4,000.0,030.4,023.8,027.1,0000.0,0003.07,0004.43,0002.75
2024-04-28 18:43:00,SystemResetWarning,0824.0,5.00,000.00,022.0,021.4,000.0,030.4,023.8,028.2,0000.0,0003.12,0004.62,0002.82
2024-04-28 18:44:00,SystemResetWarning,0824.0,5.01,000.00,022.0,021.4,000.0,030.4,023.8,027.2,0000.0,0003.15,0004.68,0002.89
2024-04-28 18:45:00,SystemResetWarning,0824.0,5.01,000.00,022.0,021.4,000.0,030.4,023.8,027.9,0000.0,0003.19,0004.73,0002.95
2024-04-28 18:46:00,SystemResetWarning,0824.0,5.01,000.00,022.0,021.4,000.0,030.4,023.9,026.2,0000.0,0003.22,0004.27,0002.99
2024-04-28 18:47:00,SystemResetWarning,0824.0,5.00,000.00,022.1,021.4,000.0,030.4,023.9,025.0,0000.0,0003.21,0005.07,0003.01
2024-04-28 18:48:00,SystemResetWarning,0823.9,4.98,000.00,022.1,021.4,000.0,030.5,023.9,025.6,0000.0,0003.24,0005.30,0003.01
2024-04-28 18:49:00,SystemResetWarning,0824.0,4.99,000.00,022.1,021.4,000.0,030.5,023.9,026.0,0000.0,0003.23,0005.31,0003.01
2024-04-28 18:50:00,SystemResetWarning,0824.0,5.00,000.00,022.1,021.4,000.0,030.5,023.9,025.9,0000.0,0003.25,0005.50,0003.00
2024-04-28 18:51:00,SystemResetWarning,0824.0,5.01,000.00,022.1,021.4,000.0,030.5,023.9,026.2,0000.0,0003.26,0005.73,0002.99
2024-04-28 18:52:00,SystemResetWarning,0824.0,5.01,000.00,022.1,021.5,000.0,030.5,023.9,026.3,0000.0,0003.29,0005.96,0003.00
2024-04-28 18:53:00,SystemResetWarning,0824.0,5.00,000.00,022.1,021.5,000.0,030.5,023.9,026.2,0000.0,0003.31,0005.99,0003.02
2024-04-28 18:54:00,SystemResetWarning,0824.0,4.99,000.00,022.1,021.5,000.0,030.5,023.9,026.4,0000.0,0003.30,0005.86,0003.04
2024-04-28 18:55:00,SystemResetWarning,0823.9,4.99,000.00,022.2,021.5,000.0,030.5,024.0,026.6,0000.0,0003.32,0006.49,0003.05
2024-04-28 18:56:00,SystemResetWarning,0824.0,5.01,000.00,022.2,021.5,000.0,030.5,024.0,026.8,0000.0,0003.32,0007.22,0003.05
2024-04-28 18:57:00,SystemResetWarning,0823.9,5.01,000.00,022.2,021.5,000.0,030.6,024.0,026.1,0000.0,0003.31,0007.19,0003.04
2024-04-28 18:58:00,SystemResetWarning,0823.9,5.00,000.00,022.2,021.5,000.0,030.6,024.0,024.0,0000.0,0003.32,0006.75,0003.06
2024-04-28 18:59:00,SystemResetWarning,0824.0,4.99,000.00,022.2,021.6,000.0,030.6,024.0,025.2,0000.0,0003.29,0007.41,0003.05
